Weather Roundup
Issued by NWS Chicago, IL

Home | Current Version | Previous Version | Graphics & Text | Print | Product List | Glossary On
Versions: 1 2 3 4 5 6 7 8 9 10 11 12 13 14 15 16 17 18 19 20 21 22 23 24 25 26 27 28 29 30 31 32 33 34 35 36 37 38 39 40 41 42 43 44 45 46 47 48 49 50
000
NZUS59 KLOT 120708
HRRLOT

CHICAGO AREA WEATHER ROUNDUP
NATIONAL WEATHER SERVICE CHICAGO/ROMEOVILLE IL
100 AM CST FRI FEB 12 2016

NOTE: "FAIR" INDICATES FEW OR NO CLOUDS BELOW 12,000 FEET WITH NO
SIGNIFICANT WEATHER AND/OR OBSTRUCTIONS TO VISIBILITY.

* THESE STATIONS ARE NOT UNDER NWS QUALITY CONTROL. THEY ALSO MAY NOT
  REPORT WEATHER SUCH AS PRECIPITATION OR FOG.

ILZ005-006-012>014-019>023-120800-
NORTHEAST ILLINOIS

CITY           SKY/WX    TMP DP  RH WIND       PRES   REMARKS
OHARE          CLOUDY    19   7  59 W7        30.20F WCI  10
MIDWAY         CLOUDY    20   6  55 W5        30.22F WCI  13
AURORA         MOCLDY    18   9  68 SW3       30.22F
LANSING*       CLOUDY    14   9  80 SW3       30.23F
JOLIET*        CLOUDY    21  10  61 CALM      30.23F
WAUKEGAN       CLOUDY    18   6  59 SW6       30.18F WCI  10
DUPAGE AIRPORT CLOUDY    18   8  65 SW6       30.20F WCI  10
WHEELING       CLOUDY    19   6  57 W7        30.22F WCI  10
KANKAKEE*      CLOUDY    19  13  76 SW5       30.24F WCI  13
MORRIS*        CLOUDY    19  12  74 CALM      30.20F
LEWIS AIRPORT* CLOUDY    17   8  66 SW3       30.22F
$$

WIZ051-052-058>065-066-070>072-120800-
SOUTHEAST WISCONSIN

CITY           SKY/WX    TMP DP  RH WIND       PRES   REMARKS
MILWAUKEE      CLOUDY    18   2  49 W9        30.17F WCI   7
KENOSHA*       CLOUDY    18   8  65 W6        30.18F WCI  10
RACINE*        CLOUDY    18   5  57 W8        30.18F WCI   8
BURLINGTON     CLOUDY    15   5  64 SW5       30.17F WCI   8
WAUKESHA       CLOUDY    16   3  57 W10       30.16F WCI   3
WEST BEND      CLOUDY    16   1  53 CALM      30.14F
$$

INZ001>003-010>013-019-020-120800-
NORTHWEST INDIANA

CITY           SKY/WX    TMP DP  RH WIND       PRES   REMARKS
GARY*          CLOUDY    17  10  77 CALM      30.23F
MICHIGAN CITY* NOT AVBL
RENSSELAER*    NOT AVBL
VALPARAISO     CLOUDY    13   7  77 SW3       30.22F
$$

LMZ740>746-120800-
SOUTHERN LAKE MICHIGAN

STATION/POSITION TIME  SKY/WX   TEMP WIND        PRES    VSBY
                                AIR  DIR/SP/G
                 (UTC)          (F)  (DEG/KT/KT) (MB)    (MI)
HARRISON CRIB    0600            21  250/ 10/ 12   N/A
BURNHAM HARBOR   0600            21  260/  9/  9   N/A
CALUMET HARBOR   0600            19  220/  4/  6 1023.5F
BURNS HARBOR     0600            19  220/  7/  9 1024.7F
MICHIGAN CITY    0600            17  190/  9/ 10   N/A
$$

ABBREVIATIONS USED IN REMARKS
   TC - TEMPERATURE IN CELSIUS
  WCI - WIND CHILL INDEX
   HX - HEAT INDEX
  VSB - VISIBILITY
$$



USA.gov is the U.S. government's official web portal to all federal, state and local government web resources and services.